EW0408 Weather Reports


Display with metric or nautical units.
time (UTC)temp
F
wind
direction
speed
MPH
gust
MPH
rain 1hr
in
rain 24hr
in
rain mn
in
humidity
%
barometer
mb
20260502163004 88 232 7.0 19.0 0.00 0.00 0.00 62 1011.7
20260502162004 89 231 7.0 22.0 0.00 0.00 0.00 62 1011.4
20260502161004 89 225 7.0 17.0 0.00 0.00 0.00 62 1011.5
20260502152025 85 230 8.0 17.0 0.00 0.00 0.00 65 1011.8
20260502151004 87 211 7.0 21.0 0.00 0.00 0.00 64 1011.7
20260502123004 72 188 0.0 3.0 0.00 0.00 0.00 89 1010.9
20260502122004 71 196 0.0 2.0 0.00 0.00 0.00 91 1011.0
20260502121025 70 200 1.0 5.0 0.00 0.00 0.00 92 1011.2
20260502115025 69 191 0.0 3.0 0.00 0.00 0.00 93 1011.0
20260502114025 68 0 0.0 0.0 0.00 0.00 0.00 93 1011.0
20260502113025 68 0 0.0 0.0 0.00 0.00 0.00 93 1010.9
20260502112004 68 192 0.0 4.0 0.00 0.00 0.00 93 1010.9
20260502111005 67 193 1.0 5.0 0.00 0.00 0.00 93 1010.8
20260502110004 67 0 0.0 0.0 0.00 0.00 0.00 92 1011.1
20260502105004 67 197 1.0 4.0 0.00 0.00 0.00 92 1010.9
20260502104025 68 205 1.0 3.0 0.00 0.00 0.00 92 1011.0
20260502103004 68 206 1.0 4.0 0.00 0.00 0.00 92 1011.1
20260502101004 68 210 2.0 5.0 0.00 0.00 0.00 92 1010.9
20260502091004 69 0 0.0 0.0 0.00 0.00 0.00 92 1011.2
20260502071004 68 0 0.0 0.0 0.00 0.00 0.00 89 1011.3
20260502070004 69 0 0.0 0.0 0.00 0.00 0.00 88 1011.4
20260502065004 69 0 0.0 0.0 0.00 0.00 0.00 88 1011.5
20260502064004 69 0 0.0 0.0 0.00 0.00 0.00 88 1011.7
20260502063004 70 0 0.0 0.0 0.00 0.00 0.00 88 1011.7
20260502062004 70 0 0.0 0.0 0.00 0.00 0.00 87 1011.8
20260502061004 70 0 0.0 0.0 0.00 0.00 0.00 87 1011.7
20260502060004 70 252 1.0 5.0 0.00 0.00 0.00 87 1011.7
20260502055025 71 250 1.0 4.0 0.00 0.00 0.00 86 1011.5
20260502054004 71 253 1.0 5.0 0.00 0.00 0.00 86 1011.8
20260502053004 71 252 2.0 4.0 0.00 0.00 0.00 85 1011.8
20260502052004 71 251 3.0 5.0 0.00 0.00 0.00 85 1012.1
20260502051025 71 248 2.0 6.0 0.00 0.00 0.00 84 1012.0
20260502050004 72 252 3.0 6.0 0.00 0.00 0.00 84 1011.9
20260502045004 72 256 2.0 6.0 0.00 0.00 0.00 83 1011.9
20260502044004 72 263 2.0 5.0 0.00 0.00 0.00 82 1012.0
20260502043004 72 244 2.0 5.0 0.00 0.00 0.00 81 1012.0
20260502042025 73 256 2.0 5.0 0.00 0.00 0.00 80 1012.0
20260502041004 73 258 2.0 5.0 0.00 0.00 0.00 79 1012.0
20260502040004 73 261 2.0 4.0 0.00 0.00 0.00 78 1012.0
20260502035004 74 263 2.0 4.0 0.00 0.00 0.00 77 1011.9
20260502034005 74 260 2.0 6.0 0.00 0.00 0.00 76 1012.1
20260502033004 74 260 3.0 5.0 0.00 0.00 0.00 75 1012.1
20260502032025 74 267 2.0 5.0 0.00 0.00 0.00 75 1012.2
20260502031004 75 271 2.0 6.0 0.00 0.00 0.00 74 1012.2
20260502030004 75 260 2.0 6.0 0.00 0.00 0.00 73 1012.1
20260502025003 76 267 2.0 6.0 0.00 0.00 0.00 72 1012.0
20260502024004 76 254 2.0 7.0 0.00 0.00 0.00 71 1012.1
20260502023024 76 244 2.0 6.0 0.00 0.00 0.00 70 1012.1
20260502022004 77 263 3.0 7.0 0.00 0.00 0.00 69 1012.1
20260502021004 77 261 3.0 5.0 0.00 0.00 0.00 69 1012.0
20260502020004 78 268 2.0 6.0 0.00 0.00 0.00 68 1011.9
20260502015004 78 251 3.0 7.0 0.00 0.00 0.00 67 1011.7
20260502014004 79 265 3.0 7.0 0.00 0.00 0.00 66 1011.6
20260502013005 79 264 2.0 7.0 0.00 0.00 0.00 65 1011.5
20260502012003 80 259 3.0 6.0 0.00 0.00 0.00 65 1011.2
20260502011004 80 267 3.0 8.0 0.00 0.00 0.00 64 1011.2
20260502010025 80 249 3.0 6.0 0.00 0.00 0.00 64 1011.0
20260502005004 81 265 3.0 7.0 0.00 0.00 0.00 63 1010.9
20260502004005 81 259 4.0 8.0 0.00 0.00 0.00 63 1010.7
20260502003026 82 251 3.0 8.0 0.00 0.00 0.00 62 1010.6
20260502002004 82 251 4.0 8.0 0.00 0.00 0.00 61 1010.3
20260502001025 83 256 4.0 9.0 0.00 0.00 0.00 60 1010.2
20260502000004 84 250 4.0 9.0 0.00 0.00 0.00 59 1010.1
20260501235025 84 251 3.0 8.0 0.00 0.00 0.00 58 1010.0
20260501234004 85 243 3.0 9.0 0.00 0.00 0.00 58 1009.7
20260501233004 85 227 5.0 9.0 0.00 0.00 0.00 57 1009.7
20260501232004 86 234 4.0 12.0 0.00 0.00 0.00 56 1009.7
20260501231025 86 228 6.0 12.0 0.00 0.00 0.00 56 1009.6
20260501230004 87 233 6.0 13.0 0.00 0.00 0.00 55 1009.5
20260501225004 88 239 6.0 12.0 0.00 0.00 0.00 55 1009.3
20260501224004 88 236 5.0 12.0 0.00 0.00 0.00 55 1009.2
20260501223003 89 236 6.0 12.0 0.00 0.00 0.00 55 1009.2
20260501222025 89 224 5.0 10.0 0.00 0.00 0.00 55 1009.3
20260501221024 89 218 6.0 12.0 0.00 0.00 0.00 54 1009.2
20260501220004 89 227 6.0 15.0 0.00 0.00 0.00 54 1009.1
20260501215004 89 249 5.0 11.0 0.00 0.00 0.00 49 1009.1
20260501214003 90 241 3.0 11.0 0.00 0.00 0.00 49 1009.2
20260501213004 91 264 3.0 9.0 0.00 0.00 0.00 46 1009.1
20260501212004 92 240 4.0 11.0 0.00 0.00 0.00 44 1009.1
20260501211004 92 243 3.0 9.0 0.00 0.00 0.00 45 1009.1
20260501210004 92 103 1.0 7.0 0.00 0.00 0.00 45 1009.3
20260501205004 92 244 4.0 10.0 0.00 0.00 0.00 45 1009.4
20260501204004 91 227 4.0 10.0 0.00 0.00 0.00 45 1009.5
20260501203003 92 246 4.0 11.0 0.00 0.00 0.00 46 1009.6
20260501202003 91 235 2.0 11.0 0.00 0.00 0.00 46 1009.8
20260501201004 91 243 2.0 6.0 0.00 0.00 0.00 47 1010.0
20260501200025 92 287 3.0 8.0 0.00 0.00 0.00 46 1010.4
20260501195004 91 246 1.0 6.0 0.00 0.00 0.00 46 1010.5
20260501194004 91 231 2.0 8.0 0.00 0.00 0.00 46 1010.6
20260501193004 91 233 3.0 10.0 0.00 0.00 0.00 47 1010.8
20260501192024 91 222 4.0 10.0 0.00 0.00 0.00 49 1010.9
20260501191003 90 220 5.0 15.0 0.00 0.00 0.00 48 1011.0
20260501190004 90 273 1.0 7.0 0.00 0.00 0.00 51 1011.1
20260501185004 89 306 3.0 11.0 0.00 0.00 0.00 50 1011.3
20260501184004 90 338 2.0 6.0 0.00 0.00 0.00 50 1011.4
20260501183004 90 275 3.0 11.0 0.00 0.00 0.00 52 1011.6
20260501182004 91 291 3.0 11.0 0.00 0.00 0.00 50 1011.6
20260501181004 90 311 2.0 7.0 0.00 0.00 0.00 51 1011.8
20260501180004 90 207 4.0 8.0 0.00 0.00 0.00 51 1011.8
20260501175024 90 180 1.0 8.0 0.00 0.00 0.00 50 1012.1
20260501174024 90 0 0.0 0.0 0.00 0.00 0.00 52 1012.0
20260501173003 90 0 0.0 0.0 0.00 0.00 0.00 56 1012.1
20260501172003 89 0 0.0 0.0 0.00 0.00 0.00 56 1012.2
20260501171003 88 0 0.0 0.0 0.00 0.00 0.00 58 1012.4
20260501170004 88 0 0.0 0.0 0.00 0.00 0.00 56 1012.3
20260501165004 89 0 0.0 0.0 0.00 0.00 0.00 56 1012.3
20260501164003 88 0 0.0 0.0 0.00 0.00 0.00 59 1012.6